DRAGON CRS-12

Last updated on Sept. 18, 2017, 12:15 a.m. UTC

1 42904U 17045A   17260.43667123  .35747718  00000-0  35781+0 0  9999
2 42904  51.6403 298.4787 0004318 303.3822  56.5513 15.57297920  5256

Satellite is not in orbit.